{"data":{"norad_id":58067,"epoch":"2026-05-24T18:45:18.604512Z","epoch_age_seconds":84076,"freshness":"FRESH","line1":"1 58067U 23158S   26144.78146533  .00000176  00000+0  15912-4 0  9994","line2":"2 58067  43.0012 317.6147 0001437 273.5279  86.5408 15.27574075145203","mean_motion":15.27574075,"eccentricity":0.0001437,"inclination_deg":43.0012,"raan_deg":317.6147,"arg_perigee_deg":273.5279,"mean_anomaly_deg":86.5408,"bstar":1.5912e-5,"rev_number":14520,"period_min":94.267114345993,"perigee_km":482.08088268703,"apogee_km":484.05279266998,"semimajor_km":6861.2038376785,"source":"CELESTRAK","updated_at":"2026-05-25T13:38:18.502399Z"}}